KAL929 RKSI-LIRF

Flight info

Callsign KAL929
Flight time N/A
Altitude 21700
Route NOPIK2Y NOPIK Y697 AGAVO/K0813S0660 A591 IKEKA W4 FZ/K0904S1040 W4 HCH W200 DOVIV W55 PAMRU W34 LADIX B339 ASILA A575 UPREK W28 ISBOS/K0904S1100 W28 LAGEB W66 NUKTI B215 KABDO W119 GOBOK A343 RULAD/K0898F380 M610 ARBOL Z621 ELAHA N147 OTBOR/N0485F380 A480 TIMGA B476 METKA L88 RASAM/N0487F400 N199 LUSAL M11 REBLO UM11 CRM UM688 EKSUK UL852 NEGEM Q8 DOLAP DCT RAMAP DCT KATTI/N0478F410 DCT ESODU/N0379F190 Z924 MOPUV
Aircraft A359/H-SDE2E3GHIJ3J4J5LM1ORWXY/LB1D1

Departure

Time 2026-05-04 03:17
Airport Incheon International Airport (RKSI)

Arrival

Time N/A
Airport Rome–Fiumicino Leonardo da Vinci International Airport (LIRF)
Time Latitude Longitude Altitude Speed Heading
2026-05-04 03:13 37.44522 126.44281 39 ft 0 kts 144°
2026-05-04 03:14 37.44507 126.44294 39 ft 5 kts 144°
2026-05-04 03:14 37.44474 126.44318 39 ft 6 kts 160°
2026-05-04 03:14 37.44437 126.44311 39 ft 5 kts 207°
2026-05-04 03:15 37.44410 126.44272 39 ft 7 kts 236°
2026-05-04 03:15 37.44380 126.44218 39 ft 8 kts 234°
2026-05-04 03:15 37.44367 126.44162 39 ft 6 kts 280°
2026-05-04 03:15 37.44389 126.44132 39 ft 5 kts 325°
2026-05-04 03:16 37.44421 126.44104 39 ft 9 kts 325°
2026-05-04 03:16 37.44593 126.43950 39 ft 60 kts 324°
2026-05-04 03:16 37.45096 126.43505 39 ft 115 kts 324°
2026-05-04 03:16 37.45884 126.42803 39 ft 162 kts 325°
2026-05-04 03:17 37.46915 126.41907 253 ft 189 kts 323°
2026-05-04 03:17 37.47956 126.40914 1011 ft 182 kts 316°
2026-05-04 03:17 37.48770 126.39773 1807 ft 175 kts 306°
2026-05-04 03:17 37.49456 126.38428 2005 ft 192 kts 302°
2026-05-04 03:18 37.50164 126.36927 2279 ft 207 kts 295°
2026-05-04 03:18 37.50477 126.35075 2515 ft 228 kts 276°
2026-05-04 03:18 37.50528 126.33021 2900 ft 239 kts 274°
2026-05-04 03:18 37.50555 126.30897 3448 ft 244 kts 274°
2026-05-04 03:19 37.50592 126.28745 4010 ft 247 kts 275°
2026-05-04 03:19 37.50636 126.26572 4587 ft 250 kts 275°
2026-05-04 03:19 37.50683 126.24405 5179 ft 251 kts 276°
2026-05-04 03:19 37.50733 126.22206 5776 ft 253 kts 276°
2026-05-04 03:20 37.50772 126.19978 6380 ft 256 kts 274°
2026-05-04 03:20 37.50467 126.17736 6925 ft 267 kts 253°
2026-05-04 03:20 37.49553 126.15656 7526 ft 275 kts 242°
2026-05-04 03:20 37.48476 126.13639 8124 ft 279 kts 241°
2026-05-04 03:21 37.47385 126.11611 8722 ft 282 kts 242°
2026-05-04 03:21 37.46288 126.09549 9347 ft 285 kts 242°
2026-05-04 03:21 37.45185 126.07463 9948 ft 288 kts 242°
2026-05-04 03:21 37.44063 126.05330 10348 ft 298 kts 242°
2026-05-04 03:22 37.42892 126.03095 10627 ft 313 kts 242°
2026-05-04 03:22 37.41679 126.00752 10890 ft 326 kts 244°
2026-05-04 03:22 37.40805 125.98100 11131 ft 330 kts 265°
2026-05-04 03:22 37.40636 125.95204 11426 ft 337 kts 274°
2026-05-04 03:23 37.40624 125.92209 11818 ft 346 kts 274°
2026-05-04 03:23 37.40610 125.89167 12354 ft 350 kts 274°
2026-05-04 03:23 37.40586 125.86093 12934 ft 353 kts 274°
2026-05-04 03:23 37.40555 125.82992 13513 ft 356 kts 274°
2026-05-04 03:24 37.40520 125.79860 14049 ft 359 kts 274°
2026-05-04 03:24 37.40484 125.76713 14575 ft 361 kts 274°
2026-05-04 03:24 37.40445 125.73544 15079 ft 364 kts 274°
2026-05-04 03:24 37.40405 125.70389 15573 ft 366 kts 274°
2026-05-04 03:25 37.40364 125.67176 16086 ft 368 kts 274°
2026-05-04 03:25 37.40322 125.63944 16594 ft 370 kts 274°
2026-05-04 03:25 37.40298 125.61796 16929 ft 372 kts 274°
2026-05-04 03:25 37.40255 125.58522 17431 ft 375 kts 274°
2026-05-04 03:26 37.40209 125.55229 17917 ft 378 kts 274°
2026-05-04 03:26 37.40144 125.50800 18553 ft 381 kts 274°
2026-05-04 03:26 37.40110 125.48589 18848 ft 382 kts 274°
2026-05-04 03:26 37.40059 125.45243 19314 ft 384 kts 274°
2026-05-04 03:27 37.40007 125.41870 19792 ft 386 kts 273°
2026-05-04 03:27 37.39954 125.38483 20288 ft 387 kts 273°
2026-05-04 03:27 37.39901 125.35109 20782 ft 389 kts 273°
2026-05-04 03:27 37.39845 125.31681 21273 ft 390 kts 273°
2026-05-04 03:28 37.39790 125.28262 21639 ft 393 kts 272°
2026-05-04 03:28 37.39731 125.24847 21727 ft 385 kts 272°
2026-05-04 03:28 37.39672 125.21513 21736 ft 377 kts 272°
2026-05-04 03:28 37.39616 125.18230 21735 ft 376 kts 272°
2026-05-04 03:29 37.39560 125.14977 21738 ft 376 kts 272°
2026-05-04 03:29 37.39502 125.11648 21733 ft 376 kts 272°
2026-05-04 03:29 37.39444 125.08361 21742 ft 376 kts 272°
2026-05-04 03:29 37.39385 125.05074 21742 ft 376 kts 272°
2026-05-04 03:30 37.39325 125.01822 21728 ft 376 kts 272°
2026-05-04 03:30 37.39264 124.98536 21744 ft 376 kts 272°
2026-05-04 03:30 37.39202 124.95250 21744 ft 376 kts 272°
2026-05-04 03:30 37.39139 124.91963 21741 ft 376 kts 272°
2026-05-04 03:31 37.39075 124.88674 21741 ft 376 kts 272°
2026-05-04 03:31 37.39011 124.85390 21743 ft 376 kts 272°
2026-05-04 03:31 37.38945 124.82101 21743 ft 376 kts 272°
2026-05-04 03:31 37.38879 124.78819 21740 ft 376 kts 272°
2026-05-04 03:32 37.38811 124.75517 21744 ft 376 kts 272°
2026-05-04 03:32 37.38741 124.72229 21744 ft 376 kts 272°
2026-05-04 03:32 37.38671 124.68943 21746 ft 376 kts 272°
2026-05-04 03:32 37.38601 124.65695 21748 ft 376 kts 272°
2026-05-04 03:33 37.38529 124.62405 21748 ft 376 kts 272°
2026-05-04 03:33 37.38456 124.59113 21748 ft 376 kts 272°
2026-05-04 03:33 37.38382 124.55828 21749 ft 376 kts 272°
2026-05-04 03:33 37.38308 124.52541 21750 ft 376 kts 272°
2026-05-04 03:34 37.38233 124.49260 21747 ft 376 kts 272°
2026-05-04 03:34 37.38146 124.45966 21749 ft 377 kts 270°
2026-05-04 03:34 37.37755 124.42692 21748 ft 382 kts 259°
2026-05-04 03:34 37.36814 124.39548 21752 ft 388 kts 249°
2026-05-04 03:35 37.35539 124.36548 21751 ft 390 kts 245°
2026-05-04 03:35 37.34130 124.33620 21750 ft 392 kts 243°
2026-05-04 03:35 37.32656 124.30730 21752 ft 393 kts 242°
2026-05-04 03:35 37.31163 124.27854 21756 ft 393 kts 242°
2026-05-04 03:36 37.29674 124.24979 21756 ft 392 kts 242°
2026-05-04 03:36 37.28194 124.22099 21761 ft 392 kts 243°
2026-05-04 03:36 37.26747 124.19256 21754 ft 392 kts 243°
2026-05-04 03:36 37.25286 124.16370 21761 ft 392 kts 243°
2026-05-04 03:37 37.23811 124.13445 21761 ft 391 kts 243°
2026-05-04 03:37 37.22364 124.10602 21756 ft 392 kts 242°
2026-05-04 03:37 37.20859 124.07745 21758 ft 392 kts 241°
2026-05-04 03:37 37.19337 124.04910 21758 ft 392 kts 241°
2026-05-04 03:38 37.17802 124.02068 21760 ft 392 kts 241°
2026-05-04 03:38 37.16273 123.99235 21767 ft 392 kts 241°
2026-05-04 03:38 37.14767 123.96390 21765 ft 392 kts 242°
2026-05-04 03:38 37.13286 123.93526 21767 ft 391 kts 242°
2026-05-04 03:39 37.11818 123.90657 21764 ft 391 kts 242°
2026-05-04 03:39 37.10348 123.87780 21769 ft 391 kts 242°
2026-05-04 03:39 37.08882 123.84917 21768 ft 391 kts 242°
2026-05-04 03:39 37.07406 123.82047 21770 ft 391 kts 242°
2026-05-04 03:40 37.05928 123.79181 21769 ft 391 kts 242°
2026-05-04 03:40 37.04469 123.76359 21773 ft 391 kts 242°
2026-05-04 03:40 37.02991 123.73507 21772 ft 391 kts 242°
2026-05-04 03:40 37.01508 123.70649 21773 ft 391 kts 242°
2026-05-04 03:41 37.00028 123.67797 21774 ft 391 kts 242°
2026-05-04 03:41 36.98542 123.64938 21770 ft 391 kts 242°
2026-05-04 03:41 36.97060 123.62086 21770 ft 391 kts 242°
2026-05-04 03:41 36.95578 123.59238 21769 ft 391 kts 242°
2026-05-04 03:42 36.94095 123.56389 21775 ft 391 kts 242°
2026-05-04 03:42 36.92615 123.53549 21774 ft 391 kts 242°
2026-05-04 03:42 36.91129 123.50701 21772 ft 391 kts 242°
2026-05-04 03:42 36.89662 123.47889 21776 ft 391 kts 242°
2026-05-04 03:43 36.88176 123.45046 21778 ft 391 kts 242°
2026-05-04 03:43 36.86692 123.42206 21777 ft 391 kts 242°
2026-05-04 03:43 36.85321 123.39290 21778 ft 386 kts 249°
2026-05-04 03:43 36.84429 123.36171 21778 ft 380 kts 261°
2026-05-04 03:44 36.84154 123.32921 21780 ft 374 kts 275°
2026-05-04 03:44 36.84498 123.29743 21783 ft 371 kts 284°
2026-05-04 03:44 36.85126 123.26599 21780 ft 371 kts 287°
2026-05-04 03:44 36.85866 123.23508 21779 ft 371 kts 289°
2026-05-04 03:45 36.86652 123.20437 21781 ft 371 kts 289°
2026-05-04 03:45 36.87445 123.17363 21776 ft 372 kts 289°
2026-05-04 03:45 36.88228 123.14285 21778 ft 372 kts 288°
2026-05-04 03:45 36.88996 123.11197 21780 ft 372 kts 288°
2026-05-04 03:46 36.89753 123.08102 21780 ft 372 kts 288°
2026-05-04 03:46 36.90491 123.05044 21781 ft 372 kts 288°
2026-05-04 03:46 36.91234 123.01946 21782 ft 373 kts 288°
2026-05-04 03:46 36.91975 122.98846 21781 ft 373 kts 288°
2026-05-04 03:47 36.92719 122.95728 21777 ft 373 kts 288°
2026-05-04 03:47 36.93461 122.92618 21773 ft 373 kts 288°
2026-05-04 03:47 36.94202 122.89512 21774 ft 373 kts 288°
2026-05-04 03:47 36.94943 122.86400 21775 ft 373 kts 288°
2026-05-04 03:48 36.95684 122.83291 21774 ft 373 kts 288°
2026-05-04 03:48 36.96425 122.80175 21775 ft 373 kts 288°
2026-05-04 03:48 36.97164 122.77064 21775 ft 373 kts 288°
2026-05-04 03:48 36.97903 122.73948 21776 ft 374 kts 288°
2026-05-04 03:49 36.98640 122.70841 21777 ft 374 kts 288°
2026-05-04 03:49 36.99364 122.67779 21773 ft 374 kts 288°
2026-05-04 03:49 37.00106 122.64641 21775 ft 374 kts 288°
2026-05-04 03:49 37.00843 122.61518 21772 ft 374 kts 288°
2026-05-04 03:50 37.01580 122.58391 21773 ft 374 kts 288°
2026-05-04 03:50 37.02314 122.55270 21773 ft 374 kts 288°
2026-05-04 03:50 37.03048 122.52147 21773 ft 374 kts 288°
2026-05-04 03:50 37.03782 122.49022 21771 ft 374 kts 288°
2026-05-04 03:51 37.04516 122.45891 21774 ft 374 kts 288°
2026-05-04 03:51 37.05248 122.42765 21770 ft 374 kts 288°
2026-05-04 03:51 37.05980 122.39634 21772 ft 375 kts 287°
2026-05-04 03:51 37.06753 122.36515 21769 ft 374 kts 291°
2026-05-04 03:52 37.07861 122.33631 21772 ft 373 kts 302°
2026-05-04 03:52 37.09476 122.31071 21775 ft 374 kts 315°
2026-05-04 03:52 37.11422 122.28900 21772 ft 375 kts 319°
2026-05-04 03:52 37.13480 122.26887 21774 ft 376 kts 321°
2026-05-04 03:53 37.15576 122.24928 21772 ft 376 kts 320°
2026-05-04 03:53 37.17455 122.22667 21772 ft 374 kts 309°
2026-05-04 03:53 37.18889 122.19955 21773 ft 373 kts 296°
2026-05-04 03:53 37.19932 122.16971 21771 ft 374 kts 292°
2026-05-04 03:54 37.20816 122.13902 21772 ft 375 kts 289°
2026-05-04 03:54 37.21620 122.10783 21771 ft 375 kts 288°
2026-05-04 03:54 37.22391 122.07652 21773 ft 376 kts 288°
2026-05-04 03:54 37.23163 122.04511 21773 ft 376 kts 288°
2026-05-04 03:55 37.23942 122.01383 21773 ft 376 kts 289°
2026-05-04 03:55 37.24707 121.98350 21787 ft 376 kts 289°
2026-05-04 03:55 37.25495 121.95269 21879 ft 377 kts 289°
2026-05-04 03:55 37.26340 121.91994 22027 ft 380 kts 289°
2026-05-04 03:56 37.27163 121.88808 22225 ft 388 kts 289°
2026-05-04 03:56 37.28002 121.85556 22541 ft 394 kts 289°
2026-05-04 03:56 37.28846 121.82274 22965 ft 397 kts 289°
2026-05-04 03:56 37.29702 121.78945 23416 ft 401 kts 289°
2026-05-04 03:57 37.30559 121.75603 23828 ft 403 kts 289°
2026-05-04 03:57 37.31400 121.72315 24216 ft 405 kts 287°
2026-05-04 03:57 37.32220 121.68882 24615 ft 407 kts 286°
2026-05-04 03:57 37.33018 121.65457 25000 ft 410 kts 288°
2026-05-04 03:58 37.34784 121.58620 25787 ft 413 kts 289°
2026-05-04 03:58 37.35698 121.55186 26181 ft 415 kts 289°
2026-05-04 03:58 37.36608 121.51732 26559 ft 417 kts 289°
2026-05-04 03:59 37.37511 121.48254 26956 ft 419 kts 288°
2026-05-04 03:59 37.38406 121.44760 27327 ft 421 kts 288°
2026-05-04 03:59 37.39298 121.41245 27676 ft 423 kts 288°
2026-05-04 03:59 37.40188 121.37712 28059 ft 425 kts 288°
2026-05-04 04:00 37.41081 121.34164 28414 ft 427 kts 288°
2026-05-04 04:00 37.41978 121.30589 28784 ft 429 kts 288°
2026-05-04 04:00 37.42875 121.27011 29121 ft 431 kts 288°
2026-05-04 04:00 37.43780 121.23402 29454 ft 433 kts 288°
2026-05-04 04:01 37.44689 121.19776 29789 ft 435 kts 288°
2026-05-04 04:01 37.45607 121.16146 30089 ft 437 kts 289°
2026-05-04 04:01 37.46656 121.12544 30351 ft 439 kts 291°
2026-05-04 04:01 37.47810 121.08981 30598 ft 440 kts 292°
2026-05-04 04:02 37.48986 121.05476 30850 ft 442 kts 292°
2026-05-04 04:02 37.50183 121.01900 31092 ft 443 kts 292°
2026-05-04 04:02 37.51368 120.98309 31324 ft 445 kts 292°
2026-05-04 04:02 37.52541 120.94693 31546 ft 446 kts 291°
2026-05-04 04:03 37.53702 120.91062 31835 ft 446 kts 291°
2026-05-04 04:03 37.54852 120.87435 32172 ft 444 kts 291°
2026-05-04 04:03 37.55994 120.83819 32480 ft 443 kts 291°
2026-05-04 04:03 37.57132 120.80209 32785 ft 442 kts 291°
2026-05-04 04:04 37.58268 120.76613 33121 ft 441 kts 291°
2026-05-04 04:04 37.59401 120.73029 33394 ft 440 kts 291°
2026-05-04 04:04 37.60560 120.69458 33688 ft 439 kts 292°
2026-05-04 04:04 37.61737 120.65893 33992 ft 438 kts 292°
2026-05-04 04:05 37.62896 120.62402 34239 ft 437 kts 292°
2026-05-04 04:05 37.64070 120.58856 34279 ft 438 kts 292°
2026-05-04 04:05 37.65276 120.55333 34109 ft 438 kts 295°
2026-05-04 04:05 37.66705 120.51920 34083 ft 440 kts 297°
2026-05-04 04:06 37.69735 120.45175 34079 ft 442 kts 298°
2026-05-04 04:06 37.72812 120.38459 34086 ft 442 kts 298°
2026-05-04 04:07 37.75887 120.31733 34079 ft 441 kts 298°
2026-05-04 04:07 37.78945 120.25005 34087 ft 441 kts 298°
2026-05-04 04:08 37.81996 120.18270 34078 ft 441 kts 298°
2026-05-04 04:08 37.85018 120.11583 34084 ft 442 kts 298°
2026-05-04 04:09 37.88068 120.04819 34070 ft 442 kts 298°
2026-05-04 04:09 37.91111 119.98061 34082 ft 442 kts 298°
2026-05-04 04:10 37.94148 119.91299 34073 ft 442 kts 298°
2026-05-04 04:10 37.97190 119.84514 34077 ft 442 kts 298°
2026-05-04 04:11 38.00227 119.77726 34066 ft 443 kts 298°
2026-05-04 04:11 38.03258 119.70936 34075 ft 443 kts 298°
2026-05-04 04:12 38.06295 119.64118 34059 ft 443 kts 298°
2026-05-04 04:12 38.09315 119.57322 34072 ft 444 kts 298°
2026-05-04 04:13 38.12061 119.50309 34059 ft 443 kts 292°
2026-05-04 04:13 38.14060 119.44320 34059 ft 444 kts 292°
2026-05-04 04:14 38.16416 119.37066 34055 ft 444 kts 292°
2026-05-04 04:14 38.18769 119.29785 34057 ft 444 kts 292°
2026-05-04 04:15 38.21121 119.22512 34060 ft 445 kts 292°
2026-05-04 04:15 38.23473 119.15234 34052 ft 445 kts 292°
2026-05-04 04:16 38.25806 119.08001 34051 ft 445 kts 291°
2026-05-04 04:16 38.28154 119.00701 34051 ft 445 kts 291°
2026-05-04 04:17 38.30498 118.93392 34049 ft 446 kts 291°
2026-05-04 04:17 38.32837 118.86079 34052 ft 446 kts 291°
2026-05-04 04:18 38.35175 118.78753 34049 ft 446 kts 291°
2026-05-04 04:18 38.37515 118.71427 34048 ft 446 kts 291°
2026-05-04 04:19 38.39858 118.64093 34044 ft 447 kts 291°
2026-05-04 04:19 38.42183 118.56793 34045 ft 447 kts 291°
2026-05-04 04:20 38.44535 118.49389 34045 ft 448 kts 291°
2026-05-04 04:20 38.46872 118.42013 34044 ft 449 kts 291°
2026-05-04 04:21 38.49203 118.34668 34041 ft 449 kts 291°
2026-05-04 04:21 38.51529 118.27269 34043 ft 449 kts 291°
2026-05-04 04:22 38.53854 118.19847 34039 ft 449 kts 291°
2026-05-04 04:22 38.56174 118.12434 34038 ft 450 kts 292°
2026-05-04 04:23 38.58637 118.05159 33883 ft 449 kts 299°
2026-05-04 04:23 38.60339 118.01734 34041 ft 450 kts 307°
2026-05-04 04:23 38.62319 117.98698 34023 ft 450 kts 311°
2026-05-04 04:24 38.66602 117.92854 34033 ft 450 kts 313°
2026-05-04 04:24 38.70960 117.87100 34018 ft 450 kts 313°
2026-05-04 04:25 38.75321 117.81314 34015 ft 451 kts 313°
2026-05-04 04:25 38.79653 117.75517 34024 ft 451 kts 313°
2026-05-04 04:26 38.83984 117.69694 34016 ft 451 kts 313°
2026-05-04 04:26 38.88313 117.63863 34005 ft 451 kts 313°
2026-05-04 04:27 38.92640 117.58025 34013 ft 451 kts 313°
2026-05-04 04:27 38.96936 117.52220 33991 ft 451 kts 313°
2026-05-04 04:28 39.01289 117.46328 33992 ft 451 kts 313°
2026-05-04 04:28 39.05387 117.40280 34004 ft 452 kts 305°
2026-05-04 04:29 39.08222 117.33073 33985 ft 454 kts 289°
2026-05-04 04:29 39.09604 117.25110 33992 ft 457 kts 282°
2026-05-04 04:30 39.10660 117.17015 33990 ft 458 kts 282°
2026-05-04 04:30 39.12213 117.09156 34000 ft 454 kts 294°
2026-05-04 04:31 39.15391 117.02198 33992 ft 451 kts 310°
2026-05-04 04:31 39.20064 116.96855 33988 ft 451 kts 327°
2026-05-04 04:32 39.25813 116.93611 33984 ft 454 kts 344°
2026-05-04 04:32 39.32114 116.92792 33978 ft 459 kts
2026-05-04 04:33 39.38446 116.93452 33973 ft 458 kts 357°
2026-05-04 04:33 39.44773 116.92682 33981 ft 456 kts 350°
2026-05-04 04:34 39.51053 116.91471 33986 ft 456 kts 349°
2026-05-04 04:34 39.57309 116.90160 33969 ft 456 kts 349°
2026-05-04 04:35 39.63578 116.88844 33969 ft 456 kts 349°
2026-05-04 04:35 39.69840 116.87542 33969 ft 456 kts 349°
2026-05-04 04:36 39.76104 116.86243 33971 ft 456 kts 349°
2026-05-04 04:36 39.82335 116.84954 33969 ft 456 kts 349°
2026-05-04 04:37 39.94882 116.82469 33966 ft 456 kts 350°
2026-05-04 04:38 40.01143 116.81227 33966 ft 456 kts 350°
2026-05-04 04:38 40.07419 116.79974 33967 ft 455 kts 350°
2026-05-04 04:39 40.13682 116.78719 33967 ft 455 kts 350°
2026-05-04 04:39 40.19946 116.77462 33965 ft 455 kts 350°
2026-05-04 04:40 40.26204 116.76206 33965 ft 455 kts 350°
2026-05-04 04:40 40.32424 116.74868 33964 ft 454 kts 346°
2026-05-04 04:41 40.38510 116.72635 33962 ft 453 kts 342°
2026-05-04 04:41 40.44544 116.70213 33955 ft 453 kts 342°
2026-05-04 04:42 40.50570 116.67753 33953 ft 453 kts 342°
2026-05-04 04:42 40.56585 116.65305 33956 ft 453 kts 342°
2026-05-04 04:43 40.62615 116.62854 33945 ft 453 kts 342°
2026-05-04 04:43 40.68647 116.60398 33941 ft 453 kts 342°
2026-05-04 04:44 40.74671 116.57944 33938 ft 453 kts 342°
2026-05-04 04:44 40.80845 116.56425 33928 ft 455 kts 353°
2026-05-04 04:45 40.87152 116.55744 33926 ft 456 kts 354°
2026-05-04 04:47 41.09319 116.53734 33908 ft 456 kts 354°
2026-05-04 04:47 41.15648 116.53140 33908 ft 456 kts 354°
2026-05-04 04:48 41.21946 116.52248 33903 ft 454 kts 347°
2026-05-04 04:49 41.33285 116.45310 33897 ft 452 kts 329°
2026-05-04 04:49 41.35990 116.43157 33895 ft 452 kts 329°
2026-05-04 04:49 41.41383 116.38826 33890 ft 452 kts 329°
2026-05-04 04:50 41.46780 116.34514 33884 ft 452 kts 329°
2026-05-04 04:50 41.52190 116.30211 33878 ft 452 kts 329°
2026-05-04 04:51 41.57595 116.25910 33877 ft 452 kts 329°
2026-05-04 04:51 41.62991 116.21608 33869 ft 451 kts 329°
2026-05-04 04:52 41.68382 116.17300 33863 ft 451 kts 329°
2026-05-04 04:52 41.73772 116.12986 33858 ft 451 kts 329°
2026-05-04 04:53 41.79124 116.08691 33852 ft 451 kts 329°
2026-05-04 04:53 41.84507 116.04364 33851 ft 451 kts 329°
2026-05-04 04:54 41.89889 116.00029 33843 ft 451 kts 329°
2026-05-04 04:54 41.94895 115.94992 33837 ft 451 kts 316°
2026-05-04 04:55 41.98693 115.88281 33835 ft 453 kts 302°
2026-05-04 04:55 42.01788 115.80863 33832 ft 454 kts 300°
2026-05-04 04:56 42.04772 115.73370 33827 ft 454 kts 300°
2026-05-04 04:56 42.07747 115.65915 33825 ft 454 kts 300°
2026-05-04 04:57 42.10753 115.58432 33823 ft 454 kts 300°
2026-05-04 04:57 42.13760 115.50953 33819 ft 454 kts 300°
2026-05-04 04:58 42.16762 115.43469 33811 ft 454 kts 300°
2026-05-04 04:58 42.19754 115.35984 33810 ft 453 kts 300°
2026-05-04 04:59 42.22276 115.28186 33805 ft 456 kts 288°
2026-05-04 04:59 42.23117 115.19679 33794 ft 462 kts 271°
2026-05-04 05:00 42.22668 115.10990 33809 ft 465 kts 268°
2026-05-04 05:01 42.21799 114.99435 33801 ft 465 kts 267°
2026-05-04 05:01 42.21153 114.90746 33794 ft 465 kts 268°
2026-05-04 05:02 42.20427 114.80662 33797 ft 465 kts 268°
2026-05-04 05:02 42.19905 114.73402 33794 ft 465 kts 268°
2026-05-04 05:03 42.19278 114.64773 33786 ft 465 kts 268°
2026-05-04 05:04 42.17994 114.47431 33786 ft 465 kts 267°
2026-05-04 05:04 42.17342 114.38761 33787 ft 464 kts 267°
2026-05-04 05:06 42.14674 114.04151 33771 ft 465 kts 267°
2026-05-04 05:07 42.13990 113.95491 33770 ft 465 kts 267°
2026-05-04 05:07 42.13305 113.86891 33772 ft 465 kts 267°
2026-05-04 05:09 42.09902 113.47999 33760 ft 466 kts 261°
2026-05-04 05:10 42.08401 113.39549 33763 ft 467 kts 259°
2026-05-04 05:10 42.06795 113.31073 33763 ft 467 kts 259°
2026-05-04 05:11 42.05177 113.22603 33764 ft 467 kts 259°
2026-05-04 05:11 42.03562 113.14125 33763 ft 467 kts 259°
2026-05-04 05:12 42.01952 113.05658 33761 ft 467 kts 259°
2026-05-04 05:12 42.00331 112.97194 33764 ft 467 kts 259°
2026-05-04 05:13 41.98704 112.88734 33768 ft 467 kts 259°
2026-05-04 05:13 41.97071 112.80272 33764 ft 468 kts 259°
2026-05-04 05:14 41.95447 112.71812 33772 ft 467 kts 261°
2026-05-04 05:14 41.94839 112.63224 33775 ft 459 kts 276°
2026-05-04 05:15 41.95965 112.54848 33776 ft 455 kts 287°
2026-05-04 05:15 41.97616 112.46682 33779 ft 455 kts 288°
2026-05-04 05:16 41.99325 112.38497 33780 ft 455 kts 288°
2026-05-04 05:16 42.01007 112.30288 33781 ft 455 kts 288°
2026-05-04 05:17 42.02664 112.22062 33778 ft 455 kts 287°
2026-05-04 05:17 42.04308 112.13840 33777 ft 455 kts 288°
2026-05-04 05:18 42.05946 112.05615 33775 ft 455 kts 288°
2026-05-04 05:18 42.07579 111.97391 33773 ft 455 kts 288°
2026-05-04 05:19 42.09204 111.89165 33769 ft 455 kts 288°
2026-05-04 05:19 42.10825 111.80932 33768 ft 455 kts 288°
2026-05-04 05:20 42.12439 111.72698 33765 ft 455 kts 288°
2026-05-04 05:20 42.14048 111.64459 33759 ft 455 kts 288°
2026-05-04 05:21 42.15641 111.56272 33762 ft 454 kts 288°
2026-05-04 05:21 42.17236 111.48032 33755 ft 454 kts 288°
2026-05-04 05:22 42.18830 111.39768 33750 ft 454 kts 288°
2026-05-04 05:22 42.20128 111.31411 33752 ft 459 kts 278°
2026-05-04 05:23 42.19885 111.22771 33751 ft 465 kts 267°
2026-05-04 05:23 42.18997 111.14102 33751 ft 467 kts 265°
2026-05-04 05:24 42.18019 111.05447 33759 ft 467 kts 265°
2026-05-04 05:24 42.17053 110.96779 33753 ft 467 kts 266°
2026-05-04 05:25 42.16107 110.88148 33758 ft 468 kts 266°
2026-05-04 05:25 42.15156 110.79476 33761 ft 468 kts 266°
2026-05-04 05:26 42.14197 110.70785 33761 ft 469 kts 266°
2026-05-04 05:26 42.13229 110.62092 33763 ft 469 kts 266°
2026-05-04 05:28 42.09288 110.27323 33765 ft 470 kts 265°
2026-05-04 05:29 42.08284 110.18619 33768 ft 471 kts 265°
2026-05-04 05:29 42.07273 110.09912 33767 ft 471 kts 265°
2026-05-04 05:31 42.03159 109.75066 33775 ft 473 kts 265°
2026-05-04 05:32 42.02110 109.66338 33778 ft 473 kts 265°
2026-05-04 05:33 42.00524 109.53233 33781 ft 474 kts 265°
2026-05-04 05:33 41.99456 109.44490 33792 ft 474 kts 265°
2026-05-04 05:34 41.98381 109.35738 33790 ft 474 kts 264°
2026-05-04 05:34 41.97297 109.26980 33799 ft 474 kts 264°
2026-05-04 05:35 41.96209 109.18237 33780 ft 475 kts 264°
2026-05-04 05:35 41.95112 109.09491 33781 ft 475 kts 264°
2026-05-04 05:36 41.94011 109.00749 33791 ft 475 kts 264°
2026-05-04 05:36 41.92901 108.92002 33786 ft 475 kts 264°
2026-05-04 05:37 41.91789 108.83292 33787 ft 475 kts 264°
2026-05-04 05:37 41.90665 108.74535 33784 ft 475 kts 264°
2026-05-04 05:38 41.88961 108.61396 33783 ft 476 kts 264°
2026-05-04 05:38 41.87818 108.52642 33782 ft 477 kts 263°
2026-05-04 05:39 41.86096 108.39543 33784 ft 477 kts 263°
2026-05-04 05:40 41.84350 108.26386 33784 ft 477 kts 263°
2026-05-04 05:40 41.83178 108.17621 33787 ft 477 kts 263°
2026-05-04 05:41 41.81998 108.08849 33784 ft 478 kts 263°
2026-05-04 05:41 41.80811 108.00079 33792 ft 478 kts 263°
2026-05-04 05:42 41.79629 107.91396 33789 ft 478 kts 263°
2026-05-04 05:42 41.78426 107.82611 33795 ft 478 kts 263°
2026-05-04 05:43 41.77217 107.73845 33792 ft 478 kts 263°
2026-05-04 05:45 41.72322 107.38831 33793 ft 479 kts 262°
2026-05-04 05:47 41.67314 107.03830 33795 ft 480 kts 262°
2026-05-04 05:47 41.66043 106.95066 33788 ft 480 kts 262°
2026-05-04 05:48 41.64762 106.86293 33788 ft 480 kts 262°
2026-05-04 05:48 41.63692 106.78999 33790 ft 480 kts 262°
2026-05-04 05:49 41.62400 106.70233 33790 ft 481 kts 261°
2026-05-04 05:49 41.61102 106.61476 33791 ft 481 kts 261°
2026-05-04 05:51 41.55839 106.26455 33782 ft 481 kts 261°
2026-05-04 05:52 41.54503 106.17688 33778 ft 482 kts 261°
2026-05-04 05:52 41.52937 106.08981 33775 ft 484 kts 252°
2026-05-04 05:54 41.42935 105.75539 33757 ft 486 kts 250°
2026-05-04 05:55 41.40393 105.67191 33760 ft 486 kts 250°
2026-05-04 05:55 41.37841 105.58827 33751 ft 486 kts 250°
2026-05-04 05:56 41.35279 105.50547 33751 ft 487 kts 249°
2026-05-04 05:56 41.32684 105.42237 33751 ft 486 kts 249°
2026-05-04 05:57 41.30084 105.33920 33751 ft 486 kts 249°
2026-05-04 05:57 41.27483 105.25609 33749 ft 486 kts 249°
2026-05-04 05:58 41.24879 105.17314 33751 ft 486 kts 249°
2026-05-04 05:58 41.22270 105.09026 33750 ft 486 kts 249°
2026-05-04 05:59 41.19657 105.00752 33749 ft 486 kts 249°
2026-05-04 05:59 41.17035 104.92474 33754 ft 486 kts 249°
2026-05-04 06:00 41.14411 104.84218 33750 ft 485 kts 249°
2026-05-04 06:00 41.11780 104.75964 33755 ft 485 kts 249°
2026-05-04 06:01 41.09147 104.67722 33749 ft 485 kts 249°
2026-05-04 06:03 40.99763 104.34409 33755 ft 480 kts 264°